Showing default

GNOMES-3, 52158

Orbit data source: Space-Track

GNOMES-3, 52158 is a payload satellite owned by PlanetiQ (US) in SSO that was launched on Fri, 01 Apr 2022 UTC via an FALCON 9 launch vehicle from the Air Force Eastern Test Range (AFETR). Payload-class satellites include a variety of spacecraft equipped with specific instruments for various scientific and technological missions. These include communications satellites like Starlink; space stations such as the ISS; scientific satellites like the Hubble; Earth observation satellites from companies like Planet Labs, Umbra, and HawkEye 360; GPS; miniature CubeSats for education and research; and military/defense satellites.

Loading next visibility...
Identifier
52158, 2022-033B
Orbit
SSO
Country
Flag of USUS
Related business
Manufacturer
Blue Canyon
Mission
Operational Commercial Communications
Bus & Motor
XSAT, Unknown motor
Mass
~30 kg wet, ~30 kg dry
Launch date (UTC)
2022-04-01 (4 years ago)
Launch vehicle
FALCON 9
Launch site
Air Force Eastern Test Range (AFETR)
Object type
Payload
Rocket body
Debris
Shape & HBR
Box + 2 Pan, 0.3 m
Radar Cross Section
0.162 m², Medium (>0.1 m² and < 1m²)

Expand to show TLE details & history
Last TLE update: 10 hours ago

TLE from 10 hours ago
0 GNOMES-3
1 52158U 22033B   26170.73088867  .00001402  00000-0  17017-3 0  9990
2 52158  97.8233 246.9941 0009752 320.6894  39.3612 14.85092643227710
Epoch: 2026-06-19T17:32Z
TLE epoch observation values (Epoch: 2026-06-19T17:32:28.781Z)
Latitude
-0.00001°
Longitude
75.91852°
Altitude
611.056 km
Speed
7.557 km/s
True Right ascension
16h 27m 58s
True Declination
0° 00' 00"
Sunlit
Object was in full shadow at epoch
Visualization orbit readout
Latitude
Unknown
Longitude
Unknown
Altitude
Unknown
Speed
Unknown
Apparent Right ascension
Unknown
Apparent Declination
Unknown
Sunlit
N/A
Visualization observer readout
Local Sidereal Time
14:08:35
Azimuth
Unknown
Elevation
Unknown
Doppler factor
Unknown
Orbital elements
Apogee altitude
617.141 km
Perigee altitude
603.511 km
Semi-major axis
6,988.463 km
Eccentricity
0.00098
Inclination
97.8233°
RAAN
246.9941°
Arg. of periapsis
320.6894°
True anomaly
39.43214°
Mean anomaly
39.3612°
Eccentric anomaly
39.39666°
Mean motion
3.7151 °/min
Orbital period
96.9 mins
BSTAR
0.00017017
Loading maneuver chart data...
Computing Atmospheric mass density...

Documentation

Showing up to 5 results
|